Wind_Speed
5 4 13 11 10 9 5 3 1 1 2 2 16 21 18 16 22 21 30 33 36 39 47 49 46 38 32 34 31 32 30 28 30 27 29 31 30 33 36 33 25 20 18 20
4 9 7 4 6 9 10 2 4 5 9 4 6 12 13 10 13 23 27 30 33 39 42 43 40 39 38 32 32 32 32 27 25 27 28 30 30 33 32 22 18 16 19 19
7 7 3 5 5 5 4 5 3 6 9 10 9 16 15 12 16 27 30 36 38 38 40 39 35 32 33 35 34 35 34 27 24 26 28 30 29 25 22 20 18 19 19 17
6 7 7 7 5 11 11 4 2 3 3 7 3 10 16 15 20 14 18 32 36 37 41 43 41 40 40 38 37 38 32 25 23 26 27 27 26 21 20 17 17 19 18 13
10 6 3 4 6 7 6 11 8 4 4 4 6 4 14 4 13 9 14 29 37 48 45 46 43 43 40 37 34 33 23 23 22 22 20 19 16 14 12 15 20 19 17 17
12 15 4 7 8 5 4 5 4 3 3 6 7 8 22 10 18 14 8 24 33 29 27 25 23 22 22 24 25 25 19 20 19 15 13 11 11 14 17 19 19 16 15 14
9 10 13 6 4 2 4 5 1 1 3 9 14 9 21 3 7 6 8 17 18 18 23 26 26 23 18 17 18 18 18 17 15 13 13 12 12 13 15 16 15 14 14 11
5 3 7 8 10 7 6 8 4 6 5 4 7 12 8 13 15 19 18 23 21 22 24 24 20 16 18 17 14 15 17 17 15 16 17 16 15 15 14 12 12 10 10 9
4 1 5 6 2 10 4 5 9 2 3 1 5 7 9 12 19 8 8 16 24 26 23 20 18 13 10 13 17 18 18 17 19 20 20 19 17 15 15 14 12 11 10 8
3 5 5 4 3 11 5 4 4 1 4 5 5 6 7 7 9 5 9 11 28 34 22 9 6 10 16 19 20 19 18 20 21 21 20 19 18 15 13 14 12 10 8 7
2 0 4 2 4 5 1 1 2 3 4 3 3 5 6 4 5 7 9 19 28 30 13 10 14 20 22 21 21 21 21 23 23 21 20 19 16 14 12 10 9 8 8 8
2 1 3 6 6 4 2 3 2 4 6 7 3 6 5 5 4 6 12 26 24 11 10 16 23 24 24 23 24 24 24 24 22 20 17 14 13 10 9 8 8 10 11 10
1 1 3 5 3 4 2 3 4 2 1 5 4 7 5 10 15 18 17 22 10 1 10 21 26 26 26 26 26 27 26 24 22 18 16 14 13 10 10 9 9 12 11 11
4 4 5 4 2 2 4 8 9 5 4 7 15 12 21 22 13 17 28 24 6 6 11 19 27 27 27 27 29 28 26 23 20 17 17 16 12 9 9 9 10 13 11 9
6 6 6 9 11 10 11 13 14 14 12 9 3 3 13 15 16 16 24 23 8 12 18 21 25 27 29 30 30 28 25 22 19 20 18 14 11 8 9 9 12 16 11 7
2 3 2 10 11 13 16 15 17 18 18 17 15 14 16 21 20 14 22 23 15 20 23 24 24 27 32 31 30 27 24 21 20 20 16 13 10 7 11 14 15 12 9 7
4 2 1 5 5 7 9 18 19 19 15 11 15 7 15 10 11 13 22 21 16 23 27 27 26 30 32 32 31 28 25 25 22 17 15 13 9 8 14 15 13 11 9 8
7 7 3 3 1 5 4 4 10 19 16 14 9 10 5 10 24 30 20 16 15 22 27 28 28 29 29 30 28 26 25 24 20 16 14 11 7 11 14 17 14 12 10 9
14 9 3 3 4 9 11 2 5 5 2 9 6 11 9 16 21 11 10 4 16 22 27 27 26 28 28 28 27 26 26 22 17 14 13 12 10 11 14 19 14 13 10 10
13 13 7 4 4 5 2 2 12 7 3 5 3 8 10 11 4 5 7 7 10 19 22 25 25 27 28 28 26 26 24 21 17 15 12 10 8 10 12 16 15 12 11 8
1 3 12 9 5 6 7 12 12 5 0 10 9 11 14 5 8 3 4 12 7 14 19 23 25 28 27 27 28 26 23 20 17 14 12 12 11 10 10 12 12 11 10 10
3 4 2 3 4 4 11 12 5 6 17 15 14 13 16 21 17 12 8 15 3 13 21 22 27 29 28 27 28 26 23 19 16 14 15 12 12 11 10 10 11 10 9 10
2 2 3 2 2 4 11 16 27 27 20 12 14 21 15 15 10 13 11 17 5 9 23 24 28 29 29 29 27 26 21 21 18 16 16 14 12 11 9 9 9 8 8 10
3 0 3 5 2 10 7 19 18 17 14 19 9 8 4 4 8 14 14 15 4 11 21 25 25 29 30 29 28 22 21 22 20 18 18 16 13 10 9 6 6 5 6 8
3 5 6 4 6 17 10 23 21 26 24 21 11 7 4 6 12 12 15 13 11 9 12 23 22 27 29 29 27 26 23 23 21 19 18 17 14 10 8 7 6 4 4 4
2 4 3 3 16 10 12 17 26 29 27 26 18 15 14 16 19 16 15 9 7 5 1 13 21 23 28 30 26 27 23 23 23 20 18 19 16 13 9 7 9 7 7 7
Wind_Direction
269 199 222 228 239 256 42 71 56 322 263 281 222 249 253 251 258 257 264 263 266 271 276 281 282 285 285 285 294 295 298 281 279 255 251 245 240 244 249 251 254 248 225 226
339 261 260 247 203 244 271 264 256 266 260 214 275 277 280 264 258 259 259 261 262 272 275 277 280 277 276 280 296 297 297 280 260 245 248 240 242 243 248 253 245 218 217 218
198 254 336 266 231 230 203 218 209 226 293 283 301 283 272 262 236 251 255 262 263 262 271 275 275 274 276 283 288 295 293 284 252 246 244 240 240 244 240 231 215 207 209 208
215 254 233 224 232 225 242 178 248 325 166 258 21 289 271 271 264 249 253 259 265 269 267 269 272 275 278 279 283 290 281 268 247 242 241 239 242 242 239 227 205 203 203 197
237 197 220 240 212 186 244 200 226 223 253 269 258 310 281 241 266 270 252 256 257 260 264 269 272 275 276 275 275 277 261 243 239 237 239 237 239 231 216 191 189 187 189 185
250 254 204 217 241 204 205 180 166 163 150 253 207 194 279 251 248 255 260 253 255 263 270 275 278 280 277 273 266 260 240 226 224 221 218 212 210 195 186 182 181 180 176 181
285 235 227 205 245 236 161 103 145 91 175 231 181 184 236 259 306 242 278 287 289 277 280 279 281 281 278 262 257 238 217 205 191 188 178 170 180 188 188 187 185 181 181 194
284 180 172 191 200 202 184 163 178 177 183 220 199 226 248 234 255 276 278 277 293 298 293 285 283 272 273 254 231 201 184 173 169 162 158 158 171 174 173 177 177 181 195 204
331 141 356 19 351 172 198 167 212 23 282 198 212 279 288 283 286 290 290 308 310 315 311 294 274 262 232 188 168 166 162 164 159 159 158 160 166 168 167 175 182 186 190 207
295 294 133 195 97 303 180 183 107 331 206 247 254 258 233 318 286 355 324 302 321 325 286 268 211 172 156 155 155 160 161 160 158 159 157 158 159 164 170 173 181 192 206 214
288 179 312 335 202 185 153 293 201 174 185 211 304 266 220 248 70 334 304 331 323 320 251 184 162 152 154 156 156 157 157 157 155 154 152 153 155 158 165 180 191 195 178 173
321 1 283 264 290 344 338 257 230 205 253 252 130 278 330 112 63 8 348 335 334 336 178 164 156 153 155 155 157 158 157 156 153 152 153 156 157 163 168 169 168 161 162 158
335 308 312 323 350 28 86 315 268 228 158 221 224 242 278 328 0 350 337 343 322 258 165 163 155 157 159 160 161 160 159 156 153 155 154 150 145 144 152 149 149 158 160 154
266 216 218 221 293 346 298 296 299 273 256 252 245 288 296 303 337 335 323 330 283 194 168 165 159 163 164 164 164 162 160 159 158 154 147 144 142 145 152 154 158 160 153 147
183 229 220 243 260 268 259 268 271 262 256 249 327 292 288 304 309 298 299 318 233 195 182 176 171 167 168 166 164 164 163 163 160 154 150 148 152 150 154 148 157 154 151 146
164 265 258 280 263 245 251 259 258 251 246 255 257 269 272 279 285 290 296 313 226 202 188 185 181 176 169 169 169 168 166 164 159 156 161 169 166 165 163 155 152 152 154 153
195 238 269 269 264 322 288 246 237 243 238 219 234 224 260 283 291 281 286 300 231 202 191 189 187 182 177 173 171 168 167 160 160 168 179 177 182 183 170 173 167 173 170 163
202 196 217 265 7 245 227 341 301 244 230 221 248 247 231 268 279 278 278 284 230 201 194 191 187 184 185 173 169 167 168 169 175 186 191 184 176 169 171 171 167 174 181 172
211 201 250 231 220 285 298 35 350 356 219 220 245 262 282 296 288 268 233 245 209 200 197 194 186 185 184 179 167 164 167 173 185 190 189 182 171 175 179 178 175 178 180 174
215 215 194 180 244 258 139 265 335 297 278 83 298 285 279 298 226 245 198 180 169 193 195 188 187 187 185 183 173 166 170 180 187 182 188 178 172 170 179 184 187 185 191 194
144 197 225 233 241 276 15 327 307 199 276 320 307 299 285 254 242 304 206 175 136 171 189 188 186 187 183 181 179 179 181 187 186 189 173 168 170 158 158 169 185 191 193 198
304 319 256 214 236 248 3 323 301 337 316 297 311 305 291 288 289 232 203 182 84 170 184 188 187 186 185 184 182 183 184 175 186 181 177 170 177 175 184 184 194 199 205 209
319 267 291 241 296 261 290 272 286 298 284 289 318 304 295 298 256 205 175 180 192 186 181 188 189 186 194 194 191 186 182 188 189 184 176 183 184 190 201 204 208 214 217 216
279 7 269 293 264 308 279 338 328 322 306 351 330 306 335 251 204 186 158 150 98 136 177 188 193 196 196 198 200 191 186 192 193 192 192 193 191 190 199 207 212 226 227 212
250 313 298 254 287 326 339 341 340 352 20 19 36 44 75 105 134 143 145 145 81 61 185 202 197 204 203 200 203 199 190 192 196 200 200 203 197 194 192 192 175 142 118 105
283 301 330 322 303 304 296 339 7 5 6 20 18 42 60 82 97 102 103 111 62 358 239 207 212 214 211 206 203 201 195 194 197 203 207 207 202 193 187 185 168 153 128 119
Height
1451 1454 1445 1442 1443 1443 1444 1446 1447 1442 1438 1439 1437 1429 1428 1429 1425 1424 1420 1418 1415 1414 1416 1417 1417 1419 1419 1419 1419 1418 1417 1416 1417 1418 1420 1423 1426 1429 1430 1435 1440 1442 1446 1449
1455 1452 1445 1442 1442 1443 1444 1449 1450 1446 1440 1442 1440 1433 1429 1427 1421 1416 1414 1410 1410 1409 1409 1409 1410 1411 1411 1412 1412 1412 1411 1409 1410 1412 1415 1418 1420 1423 1426 1433 1436 1439 1444 1447
1453 1445 1442 1442 1440 1442 1443 1446 1447 1450 1441 1436 1440 1428 1421 1412 1409 1407 1404 1404 1402 1401 1401 1400 1401 1403 1404 1405 1405 1405 1403 1403 1405 1408 1410 1413 1415 1419 1424 1428 1432 1436 1441 1446
1444 1438 1438 1439 1439 1439 1444 1438 1439 1441 1446 1453 1437 1438 1416 1407 1398 1400 1398 1396 1393 1394 1393 1393 1394 1395 1395 1397 1398 1398 1396 1397 1400 1403 1405 1408 1411 1416 1420 1424 1430 1435 1439 1444
1435 1432 1433 1434 1433 1432 1435 1435 1440 1442 1446 1446 1442 1454 1394 1397 1396 1394 1390 1387 1386 1383 1384 1383 1385 1386 1387 1389 1390 1391 1389 1392 1395 1399 1402 1406 1410 1414 1419 1423 1430 1435 1440 1443
1429 1428 1428 1427 1426 1427 1428 1433 1438 1442 1450 1457 1440 1449 1397 1398 1387 1386 1380 1378 1376 1378 1378 1377 1378 1379 1380 1381 1383 1384 1385 1387 1392 1396 1400 1404 1408 1412 1417 1422 1428 1433 1437 1441
1426 1421 1418 1422 1427 1426 1428 1439 1455 1461 1462 1445 1425 1441 1390 1380 1380 1382 1377 1374 1373 1373 1372 1371 1371 1373 1374 1375 1377 1378 1382 1385 1390 1394 1399 1403 1408 1413 1417 1422 1428 1431 1435 1439
1429 1422 1418 1416 1422 1427 1430 1434 1447 1439 1444 1439 1425 1423 1390 1377 1373 1370 1374 1372 1369 1366 1364 1364 1364 1366 1367 1369 1371 1375 1380 1384 1390 1394 1399 1404 1410 1414 1419 1423 1427 1432 1435 1437
1434 1425 1420 1416 1415 1418 1424 1431 1422 1432 1427 1431 1420 1397 1384 1374 1371 1372 1373 1370 1365 1361 1359 1358 1359 1361 1363 1366 1370 1376 1381 1385 1391 1397 1401 1406 1412 1416 1420 1425 1428 1431 1434 1436
1436 1434 1418 1420 1420 1416 1417 1416 1430 1438 1432 1429 1411 1403 1393 1379 1376 1373 1371 1365 1359 1356 1355 1355 1356 1359 1363 1368 1373 1378 1383 1388 1394 1399 1403 1408 1413 1417 1421 1425 1428 1430 1433 1434
1437 1438 1422 1419 1418 1417 1416 1421 1419 1425 1427 1420 1414 1402 1377 1372 1375 1374 1370 1363 1358 1350 1350 1353 1356 1359 1365 1370 1375 1379 1384 1390 1395 1400 1405 1409 1414 1418 1422 1425 1427 1430 1432 1433
1438 1440 1439 1426 1416 1417 1418 1417 1419 1424 1418 1412 1420 1407 1368 1371 1371 1370 1366 1363 1357 1352 1352 1353 1356 1361 1366 1372 1376 1381 1387 1392 1397 1402 1406 1411 1415 1418 1421 1424 1426 1429 1431 1433
1439 1442 1442 1426 1422 1418 1420 1419 1419 1420 1422 1420 1416 1393 1368 1364 1367 1369 1367 1366 1362 1358 1357 1357 1358 1363 1368 1374 1378 1384 1389 1395 1399 1404 1408 1412 1415 1419 1421 1424 1426 1429 1431 1435
1439 1440 1439 1445 1427 1426 1426 1421 1420 1419 1423 1407 1396 1397 1379 1371 1377 1372 1366 1364 1361 1360 1360 1362 1361 1366 1370 1375 1381 1386 1392 1397 1401 1405 1409 1413 1417 1420 1422 1424 1427 1429 1432 1435
1437 1434 1436 1433 1429 1425 1423 1419 1415 1416 1411 1412 1401 1399 1389 1382 1381 1374 1368 1363 1361 1361 1362 1364 1366 1367 1372 1378 1383 1389 1394 1398 1403 1407 1411 1414 1418 1420 1422 1425 1426 1430 1433 1436
1434 1431 1429 1425 1421 1417 1415 1409 1407 1404 1402 1400 1400 1396 1388 1380 1377 1372 1366 1361 1360 1360 1360 1364 1367 1371 1373 1378 1385 1390 1395 1399 1404 1408 1412 1415 1418 1420 1423 1426 1428 1431 1434 1436
1432 1430 1431 1424 1413 1413 1411 1395 1391 1387 1386 1389 1394 1392 1379 1378 1372 1368 1362 1358 1356 1358 1360 1363 1367 1373 1375 1378 1384 1389 1395 1400 1405 1409 1412 1415 1418 1420 1423 1426 1429 1432 1434 1437
1422 1426 1429 1426 1419 1417 1382 1381 1378 1371 1372 1380 1382 1380 1375 1375 1369 1362 1360 1356 1354 1356 1359 1363 1368 1374 1381 1382 1386 1391 1396 1401 1406 1410 1413 1416 1418 1420 1423 1426 1430 1432 1435 1437
1417 1418 1421 1423 1413 1391 1379 1379 1382 1377 1372 1371 1376 1375 1374 1371 1368 1357 1356 1354 1353 1354 1358 1363 1367 1374 1382 1386 1388 1392 1397 1402 1406 1410 1413 1416 1418 1421 1423 1426 1430 1433 1435 1437
1412 1412 1414 1411 1409 1399 1382 1387 1386 1382 1373 1372 1374 1373 1371 1373 1367 1354 1352 1353 1353 1353 1356 1361 1369 1375 1381 1387 1391 1394 1397 1402 1407 1410 1413 1417 1419 1421 1423 1427 1430 1433 1436 1438
1406 1410 1408 1404 1402 1388 1386 1386 1383 1374 1376 1371 1371 1369 1367 1364 1356 1352 1351 1352 1352 1353 1357 1361 1367 1374 1380 1387 1391 1394 1398 1402 1407 1411 1415 1418 1420 1422 1425 1427 1430 1432 1435 1437
1409 1407 1398 1397 1395 1386 1392 1384 1377 1376 1372 1368 1366 1363 1359 1355 1348 1348 1350 1350 1350 1351 1356 1360 1367 1373 1381 1387 1391 1394 1398 1403 1407 1412 1416 1418 1421 1423 1426 1428 1430 1432 1434 1436
1411 1412 1406 1404 1395 1393 1392 1389 1381 1374 1371 1366 1361 1356 1353 1347 1344 1346 1348 1349 1349 1350 1354 1359 1365 1371 1380 1385 1390 1394 1398 1403 1408 1412 1416 1419 1421 1424 1426 1428 1430 1431 1433 1435
1410 1407 1403 1400 1396 1388 1386 1383 1378 1371 1366 1360 1355 1352 1349 1348 1345 1344 1346 1346 1348 1348 1352 1359 1364 1371 1376 1383 1389 1394 1399 1403 1407 1412 1416 1419 1421 1424 1426 1428 1430 1431 1432 1434
1412 1408 1402 1397 1392 1385 1381 1378 1373 1365 1359 1355 1353 1351 1350 1348 1341 1341 1342 1346 1345 1345 1352 1358 1361 1368 1375 1381 1387 1393 1398 1403 1407 1411 1416 1419 1422 1424 1426 1428 1430 1431 1433 1435
1410 1407 1401 1397 1394 1391 1383 1377 1371 1366 1361 1360 1357 1354 1350 1349 1342 1341 1342 1341 1334 1350 1351 1355 1361 1367 1374 1380 1387 1392 1398 1402 1407 1411 1414 1418 1421 1424 1426 1428 1430 1432 1434 1436